Regional Weather Roundup
Issued by NWS

Home | Current Version | Previous Version | Graphics & Text | Print | Product List | Glossary On
Versions: 1 2 3 4 5 6 7 8 9 10 11 12 13 14 15 16 17 18 19 20 21 22 23 24 25 26 27 28 29 30 31 32 33 34 35 36 37 38 39 40 41 42 43 44 45 46 47 48 49 50
000
ASUS43 KBIS 230310
RWRND

NORTH DAKOTA REGIONAL WEATHER ROUNDUP
NATIONAL WEATHER SERVICE BISMARCK ND
900 PM CST MON JAN 22 2018

NOTE: "FAIR" INDICATES FEW OR NO CLOUDS BELOW 12,000 FEET WITH NO
SIGNIFICANT WEATHER AND/OR OBSTRUCTIONS TO VISIBILITY.


NDZ001>003-009>011-017-230400-
NORTHWEST NORTH DAKOTA

CITY           SKY/WX    TMP DP  RH WIND       PRES   REMARKS
WILLISTON      CLOUDY    24  18  77 SE3       29.98S
MINOT          CLOUDY    19  16  88 S12       29.98F FOG     WCI   7
MINOT AFB      CLOUDY    17  15  90 S10       29.97F FOG     WCI   5
$$

NDZ018>021-031>035-040>046-230400-
SOUTHWEST NORTH DAKOTA

CITY           SKY/WX    TMP DP  RH WIND       PRES   REMARKS
BISMARCK       FOG       23  20  88 SW6       30.05S VSB 1/2 WCI  16
DICKINSON      MOCLDY    24  18  77 W13       29.96S WCI  12
GARRISON         N/A     17  15  92 S8        30.00F WCI   7
HETTINGER ARPT CLOUDY    20  15  81 CALM      30.01R
$$

NDZ004>008-012>016-024-026-027-054-230400-
NORTHEAST NORTH DAKOTA

CITY           SKY/WX    TMP DP  RH WIND       PRES   REMARKS
GRAND FORKS    CLOUDY    24  19  81 N6        30.07F WCI  17
GRND FRKS AFB  CLOUDY    23  17  78 NE6       30.07S WCI  16
DEVILS LAKE    CLOUDY    20  17  88 S5        30.05S WCI  13
$$

NDZ022-023-025-028>030-036>039-047>053-230400-
SOUTHEAST NORTH DAKOTA

CITY           SKY/WX    TMP DP  RH WIND       PRES   REMARKS
FARGO          CLOUDY    25  20  81 NE15      30.03S WCI  13
JAMESTOWN      CLOUDY    21  20  96 NE6       30.03S WCI  13
$$




USA.gov is the U.S. government's official web portal to all federal, state and local government web resources and services.